When you browse on this site, cookies collect data to enhance your experience and personalize the content and advertising you see.
Visit our Privacy Policy to learn more. By continuing to use the site, you agree to this use of cookies and data.
  • In Hungary
  • List of Countries
  • For 7 days
  • Water Temperature
  • Weather Map
  • News
  • Weather Widgets
  • user-avatar
    Login

    Hourly Weather Dorka Rikacheva

    Today, 20 September, Friday

    Time Temperature Precipitation Wind Pressure Humidity
    00:00 +4°C° 0 mm 1 mps 747 mmHg 85%
    01:00 +4°C° 0 mm 1 mps 747 mmHg 86%
    02:00 +4°C° 0 mm 1 mps 747 mmHg 86%
    03:00 +4°C° 0 mm 1 mps 747 mmHg 87%
    04:00 +3°C° 0 mm 1 mps 746 mmHg 89%
    05:00 +3°C° 0 mm 1 mps 746 mmHg 90%
    06:00 +4°C° 0 mm 1 mps 746 mmHg 86%
    07:00 +5°C° 0 mm 1 mps 746 mmHg 81%
    08:00 +6°C° 0 mm 1 mps 746 mmHg 77%
    09:00 +7°C° 0 mm 1 mps 746 mmHg 70%
    10:00 +7°C° 0 mm 2 mps 746 mmHg 63%
    11:00 +9°C° 0 mm 2 mps 746 mmHg 55%
    12:00 +9°C° 0 mm 2 mps 746 mmHg 55%
    13:00 +9°C° 0 mm 2 mps 746 mmHg 54%
    14:00 +9°C° 0 mm 3 mps 746 mmHg 54%
    15:00 +8°C° 0.1 mm 3 mps 746 mmHg 62%
    16:00 +7°C° 0.1 mm 2 mps 746 mmHg 71%
    17:00 +6°C° 0.1 mm 2 mps 746 mmHg 79%
    18:00 +5°C° 0 mm 2 mps 746 mmHg 84%
    19:00 +4°C° 0 mm 2 mps 746 mmHg 90%
    20:00 +3°C° 0 mm 2 mps 747 mmHg 95%
    21:00 +2°C° 0 mm 2 mps 747 mmHg 94%
    22:00 +2°C° 0 mm 2 mps 747 mmHg 93%
    23:00 +2°C° 0 mm 2 mps 747 mmHg 93%

    Tomorrow, 21 September, Saturday

    Time Temperature Precipitation Wind Pressure Humidity
    00:00 +1°C° 0 mm 2 mps 747 mmHg 93%
    01:00 +1°C° 0 mm 2 mps 747 mmHg 94%
    02:00 +1°C° 0 mm 2 mps 747 mmHg 94%
    03:00 -1°C° 0 mm 2 mps 747 mmHg 94%
    04:00 -1°C° 0 mm 2 mps 747 mmHg 95%
    05:00 -1°C° 0 mm 2 mps 747 mmHg 95%
    06:00 +1°C° 0 mm 2 mps 747 mmHg 90%
    07:00 +2°C° 0 mm 2 mps 747 mmHg 85%
    08:00 +4°C° 0 mm 2 mps 747 mmHg 80%
    09:00 +4°C° 0 mm 3 mps 746 mmHg 73%
    10:00 +7°C° 0 mm 3 mps 746 mmHg 66%
    11:00 +8°C° 0 mm 3 mps 746 mmHg 60%
    12:00 +8°C° 0.1 mm 3 mps 745 mmHg 59%
    13:00 +9°C° 0.1 mm 3 mps 745 mmHg 59%
    14:00 +9°C° 0.1 mm 3 mps 745 mmHg 58%
    15:00 +8°C° 0.1 mm 2 mps 744 mmHg 65%
    16:00 +7°C° 0.1 mm 2 mps 744 mmHg 72%
    17:00 +7°C° 0.1 mm 1 mps 744 mmHg 79%
    18:00 +6°C° 0 mm 1 mps 743 mmHg 83%
    19:00 +5°C° 0 mm 1 mps 743 mmHg 87%
    20:00 +4°C° 0 mm 1 mps 743 mmHg 91%
    21:00 +4°C° 0 mm 1 mps 743 mmHg 93%
    22:00 +3°C° 0 mm 1 mps 742 mmHg 94%
    23:00 +3°C° 0 mm 1 mps 742 mmHg 95%

    Day after tomorrow, 22 September, Sunday

    Time Temperature Precipitation Wind Pressure Humidity
    00:00 +3°C° 0 mm 1 mps 741 mmHg 95%
    01:00 +3°C° 0 mm 1 mps 741 mmHg 95%
    02:00 +4°C° 0 mm 1 mps 741 mmHg 95%
    03:00 +4°C° 0.1 mm 1 mps 740 mmHg 95%
    04:00 +3°C° 0.1 mm 0 mps 740 mmHg 94%
    05:00 +4°C° 0.1 mm 0 mps 739 mmHg 94%
    06:00 +4°C° 0.4 mm 0 mps 739 mmHg 94%
    07:00 +5°C° 0.4 mm 1 mps 738 mmHg 95%
    08:00 +5°C° 0.4 mm 1 mps 738 mmHg 95%
    09:00 +4°C° 0.9 mm 2 mps 738 mmHg 94%
    10:00 +4°C° 0.9 mm 2 mps 738 mmHg 93%
    11:00 +3°C° 0.9 mm 3 mps 738 mmHg 92%
    12:00 +3°C° 0.3 mm 4 mps 738 mmHg 88%
    13:00 +2°C° 0.3 mm 5 mps 739 mmHg 85%
    14:00 +3°C° 0.3 mm 6 mps 739 mmHg 82%
    15:00 +2°C° 0.1 mm 5 mps 740 mmHg 82%
    16:00 +2°C° 0.1 mm 5 mps 740 mmHg 83%
    17:00 +1°C° 0.1 mm 4 mps 741 mmHg 83%
    18:00 +1°C° 0 mm 4 mps 741 mmHg 85%
    19:00 0°C° 0 mm 4 mps 742 mmHg 87%
    20:00 0°C° 0 mm 4 mps 743 mmHg 89%
    21:00 0°C° 0 mm 5 mps 743 mmHg 89%
    22:00 0°C° 0 mm 5 mps 744 mmHg 89%
    23:00 +1°C° 0 mm 5 mps 744 mmHg 90%

    23 September, Monday

    Time Temperature Precipitation Wind Pressure Humidity
    00:00 0°C° 0 mm 5 mps 745 mmHg 91%
    01:00 0°C° 0 mm 4 mps 745 mmHg 92%
    02:00 0°C° 0 mm 4 mps 746 mmHg 93%
    03:00 0°C° 0 mm 4 mps 746 mmHg 92%
    04:00 0°C° 0 mm 4 mps 746 mmHg 91%
    05:00 0°C° 0 mm 4 mps 747 mmHg 90%
    06:00 0°C° 0 mm 4 mps 747 mmHg 87%
    07:00 0°C° 0 mm 5 mps 747 mmHg 84%
    08:00 +1°C° 0 mm 5 mps 747 mmHg 81%
    09:00 +1°C° 0 mm 5 mps 747 mmHg 79%
    10:00 +2°C° 0 mm 6 mps 747 mmHg 76%
    11:00 +2°C° 0 mm 6 mps 747 mmHg 74%
    12:00 +2°C° 0.2 mm 6 mps 747 mmHg 77%
    13:00 +2°C° 0.2 mm 6 mps 747 mmHg 79%
    14:00 +2°C° 0.2 mm 6 mps 747 mmHg 82%
    15:00 +2°C° 0.1 mm 5 mps 747 mmHg 84%
    16:00 +2°C° 0.1 mm 5 mps 747 mmHg 85%
    17:00 +1°C° 0.1 mm 4 mps 747 mmHg 87%
    18:00 +1°C° 0.1 mm 4 mps 747 mmHg 89%
    19:00 +1°C° 0.1 mm 3 mps 748 mmHg 91%
    20:00 +1°C° 0.1 mm 3 mps 748 mmHg 94%
    21:00 0°C° 0 mm 3 mps 748 mmHg 94%
    22:00 -1°C° 0 mm 2 mps 748 mmHg 95%
    23:00 -1°C° 0 mm 2 mps 748 mmHg 95%

    24 September, Tuesday

    Time Temperature Precipitation Wind Pressure Humidity
    00:00 -2°C° 0 mm 2 mps 749 mmHg 95%
    01:00 -2°C° 0 mm 2 mps 749 mmHg 95%
    02:00 -2°C° 0 mm 2 mps 749 mmHg 95%
    03:00 -2°C° 0 mm 2 mps 749 mmHg 95%
    04:00 -3°C° 0 mm 2 mps 749 mmHg 95%
    05:00 -3°C° 0 mm 2 mps 749 mmHg 96%
    06:00 -2°C° 0 mm 2 mps 750 mmHg 91%
    07:00 -1°C° 0 mm 2 mps 750 mmHg 87%
    08:00 +1°C° 0 mm 2 mps 750 mmHg 83%
    09:00 +3°C° 0 mm 2 mps 750 mmHg 78%
    10:00 +4°C° 0 mm 2 mps 750 mmHg 73%
    11:00 +5°C° 0 mm 2 mps 750 mmHg 68%
    12:00 +5°C° 0 mm 2 mps 750 mmHg 67%
    13:00 +6°C° 0 mm 2 mps 750 mmHg 65%
    14:00 +6°C° 0 mm 2 mps 750 mmHg 64%
    15:00 +5°C° 0 mm 2 mps 750 mmHg 68%
    16:00 +4°C° 0 mm 2 mps 750 mmHg 72%
    17:00 +5°C° 0 mm 1 mps 750 mmHg 76%
    18:00 +4°C° 0 mm 1 mps 750 mmHg 80%
    19:00 +3°C° 0 mm 1 mps 750 mmHg 85%
    20:00 +1°C° 0 mm 2 mps 751 mmHg 90%
    21:00 +1°C° 0 mm 1 mps 751 mmHg 91%
    22:00 +1°C° 0 mm 1 mps 751 mmHg 93%
    23:00 0°C° 0 mm 1 mps 751 mmHg 94%

    25 September, Wednesday

    Time Temperature Precipitation Wind Pressure Humidity
    00:00 0°C° 0 mm 1 mps 751 mmHg 94%
    01:00 0°C° 0 mm 1 mps 751 mmHg 95%
    02:00 0°C° 0 mm 1 mps 751 mmHg 95%
    03:00 0°C° 0 mm 1 mps 751 mmHg 95%
    04:00 0°C° 0 mm 1 mps 751 mmHg 95%
    05:00 0°C° 0 mm 1 mps 751 mmHg 95%
    06:00 +1°C° 0 mm 1 mps 751 mmHg 89%
    07:00 +2°C° 0 mm 1 mps 750 mmHg 83%
    08:00 +4°C° 0 mm 1 mps 750 mmHg 77%
    09:00 +4°C° 0 mm 2 mps 751 mmHg 71%
    10:00 +5°C° 0 mm 2 mps 751 mmHg 65%
    11:00 +6°C° 0 mm 2 mps 751 mmHg 59%
    12:00 +7°C° 0 mm 2 mps 751 mmHg 59%
    13:00 +7°C° 0 mm 2 mps 750 mmHg 59%
    14:00 +7°C° 0 mm 2 mps 750 mmHg 59%
    15:00 +6°C° 0 mm 2 mps 750 mmHg 64%
    16:00 +6°C° 0 mm 1 mps 750 mmHg 70%
    17:00 +5°C° 0 mm 1 mps 750 mmHg 76%
    18:00 +4°C° 0 mm 1 mps 750 mmHg 79%
    19:00 +3°C° 0 mm 1 mps 750 mmHg 82%
    20:00 +3°C° 0 mm 1 mps 750 mmHg 85%
    21:00 +2°C° 0 mm 1 mps 750 mmHg 87%
    22:00 +2°C° 0 mm 1 mps 750 mmHg 88%
    23:00 +1°C° 0 mm 1 mps 750 mmHg 90%
    Show more